Time,TemperatureF,DewpointF,PressureIn,WindDirection,WindDirectionDegrees,WindSpeedMPH,WindSpeedGustMPH,Humidity,HourlyPrecipIn,Conditions,Clouds,dailyrainin,SoftwareType,DateUTC
2013-01-21 00:00:00,30.9,18.6,29.99,NW,315,0.0,1.0,60,0.00,,,-99.99,WeatherLink 5.6,2013-01-21 05:00:00,
2013-01-21 00:30:00,29.2,17.8,29.98,North,-999,0.0,0.0,62,0.00,,,-99.99,WeatherLink 5.6,2013-01-21 05:30:00,
2013-01-21 01:00:00,30.8,18.1,29.96,North,-999,0.0,0.0,59,0.00,,,-99.99,WeatherLink 5.6,2013-01-21 06:00:00,
2013-01-21 01:30:00,30.6,18.0,29.96,NW,315,0.0,1.0,59,0.00,,,-99.99,WeatherLink 5.6,2013-01-21 06:30:00,
2013-01-21 02:00:00,29.9,18.1,29.97,NW,315,0.0,1.0,61,0.00,,,-99.99,WeatherLink 5.6,2013-01-21 07:00:00,
2013-01-21 02:30:00,29.3,17.9,29.99,NW,315,0.0,1.0,62,0.00,,,-99.99,WeatherLink 5.6,2013-01-21 07:30:00,
2013-01-21 03:00:00,29.6,17.4,29.98,NW,315,0.0,1.0,60,0.00,,,-99.99,WeatherLink 5.6,2013-01-21 08:00:00,
2013-01-21 03:30:00,29.3,17.1,29.97,NW,315,0.0,1.0,60,0.00,,,-99.99,WeatherLink 5.6,2013-01-21 08:30:00,
2013-01-21 04:00:00,29.5,17.7,29.96,West,270,0.0,1.0,61,0.00,,,-99.99,WeatherLink 5.6,2013-01-21 09:00:00,
2013-01-21 04:30:00,30.1,16.7,29.95,SW,225,0.0,1.0,57,0.00,,,-99.99,WeatherLink 5.6,2013-01-21 09:30:00,
2013-01-21 05:00:00,29.5,17.7,29.94,SSW,202,0.0,1.0,61,0.00,,,-99.99,WeatherLink 5.6,2013-01-21 10:00:00,
2013-01-21 05:30:00,29.3,17.9,29.94,South,180,3.0,7.0,62,0.00,,,-99.99,WeatherLink 5.6,2013-01-21 10:30:00,
2013-01-21 06:00:00,29.4,18.3,29.93,South,180,4.0,9.0,63,0.00,,,-99.99,WeatherLink 5.6,2013-01-21 11:00:00,
2013-01-21 06:30:00,28.8,18.5,29.93,South,180,4.0,10.0,65,0.00,,,-99.99,WeatherLink 5.6,2013-01-21 11:30:00,
2013-01-21 07:00:00,30.2,18.7,29.95,WNW,292,1.0,7.0,62,0.00,,,-99.99,WeatherLink 5.6,2013-01-21 12:00:00,
2013-01-21 07:30:00,30.9,19.0,29.95,West,270,1.0,9.0,61,0.00,,,-99.99,WeatherLink 5.6,2013-01-21 12:30:00,
2013-01-21 08:00:00,30.5,19.0,29.96,WNW,292,0.0,5.0,62,0.00,,,-99.99,WeatherLink 5.6,2013-01-21 13:00:00,
2013-01-21 08:30:00,31.5,19.2,29.96,WNW,292,1.0,4.0,60,0.00,,,-99.99,WeatherLink 5.6,2013-01-21 13:30:00,
2013-01-21 09:00:00,32.0,19.3,29.97,WSW,247,0.0,2.0,59,0.00,,,-99.99,WeatherLink 5.6,2013-01-21 14:00:00,
2013-01-21 09:30:00,31.2,19.3,29.99,SW,225,0.0,4.0,61,0.00,,,-99.99,WeatherLink 5.6,2013-01-21 14:30:00,
2013-01-21 10:00:00,33.1,17.8,29.98,WSW,247,2.0,11.0,53,0.00,,,-99.99,WeatherLink 5.6,2013-01-21 15:00:00,
2013-01-21 10:30:00,33.2,15.6,29.98,WSW,247,4.0,12.0,48,0.00,,,-99.99,WeatherLink 5.6,2013-01-21 15:30:00,
2013-01-21 11:00:00,34.1,15.9,29.98,WSW,247,4.0,14.0,47,0.00,,,-99.99,WeatherLink 5.6,2013-01-21 16:00:00,
2013-01-21 11:30:00,34.8,14.5,29.96,West,270,6.0,21.0,43,0.00,,,-99.99,WeatherLink 5.6,2013-01-21 16:30:00,
2013-01-21 12:00:00,34.4,15.2,29.95,West,270,9.0,24.0,45,0.00,,,-99.99,WeatherLink 5.6,2013-01-21 17:00:00,
2013-01-21 12:30:00,35.2,17.4,29.92,WSW,247,10.0,24.0,48,0.00,,,-99.99,WeatherLink 5.6,2013-01-21 17:30:00,
2013-01-21 13:00:00,35.6,17.3,29.90,WSW,247,9.0,20.0,47,0.00,,,-99.99,WeatherLink 5.6,2013-01-21 18:00:00,
2013-01-21 13:30:00,35.5,17.2,29.91,West,270,11.0,24.0,47,0.00,,,-99.99,WeatherLink 5.6,2013-01-21 18:30:00,
2013-01-21 14:00:00,35.5,16.7,29.89,WNW,292,11.0,24.0,46,0.00,,,-99.99,WeatherLink 5.6,2013-01-21 19:00:00,
2013-01-21 14:30:00,35.9,15.5,29.88,West,270,13.0,27.0,43,0.00,,,-99.99,WeatherLink 5.6,2013-01-21 19:30:00,
2013-01-21 15:00:00,35.5,14.6,29.89,WNW,292,13.0,31.0,42,0.00,,,-99.99,WeatherLink 5.6,2013-01-21 20:00:00,
2013-01-21 15:30:00,34.4,14.7,29.90,West,270,13.0,30.0,44,0.00,,,-99.99,WeatherLink 5.6,2013-01-21 20:30:00,
2013-01-21 16:00:00,34.4,14.7,29.90,West,270,8.0,29.0,44,0.00,,,-99.99,WeatherLink 5.6,2013-01-21 21:00:00,
2013-01-21 16:30:00,33.2,12.0,29.91,WNW,292,15.0,32.0,41,0.00,,,-99.99,WeatherLink 5.6,2013-01-21 21:30:00,
2013-01-21 17:00:00,32.3,12.3,29.92,WNW,292,12.0,29.0,43,0.00,,,-99.99,WeatherLink 5.6,2013-01-21 22:00:00,
2013-01-21 17:30:00,30.8,9.8,29.92,West,270,11.0,27.0,41,0.00,,,-99.99,WeatherLink 5.6,2013-01-21 22:30:00,
2013-01-21 18:00:00,29.2,9.4,29.94,WNW,292,13.0,27.0,43,0.00,,,-99.99,WeatherLink 5.6,2013-01-21 23:00:00,
2013-01-21 18:30:00,28.1,9.5,29.95,WNW,292,7.0,20.0,45,0.00,,,-99.99,WeatherLink 5.6,2013-01-21 23:30:00,
2013-01-21 19:00:00,26.8,9.2,29.95,WNW,292,7.0,17.0,47,0.00,,,-99.99,WeatherLink 5.6,2013-01-22 00:00:00,
2013-01-21 19:30:00,26.1,10.0,29.96,WNW,292,6.0,14.0,50,0.00,,,-99.99,WeatherLink 5.6,2013-01-22 00:30:00,
2013-01-21 20:00:00,25.2,10.9,29.97,WNW,292,5.0,15.0,54,0.00,,,-99.99,WeatherLink 5.6,2013-01-22 01:00:00,
2013-01-21 20:30:00,24.0,10.2,29.97,NW,315,6.0,18.0,55,0.00,,,-99.99,WeatherLink 5.6,2013-01-22 01:30:00,
2013-01-21 21:00:00,23.0,10.0,29.98,NW,315,7.0,17.0,57,0.00,,,-99.99,WeatherLink 5.6,2013-01-22 02:00:00,
2013-01-21 21:30:00,22.2,8.1,29.99,WNW,292,9.0,23.0,54,0.00,,,-99.99,WeatherLink 5.6,2013-01-22 02:30:00,
2013-01-21 22:00:00,21.2,7.5,30.00,WNW,292,9.0,19.0,55,0.00,,,-99.99,WeatherLink 5.6,2013-01-22 03:00:00,
2013-01-21 22:30:00,20.4,7.6,30.01,WNW,292,10.0,20.0,57,0.00,,,-99.99,WeatherLink 5.6,2013-01-22 03:30:00,
2013-01-21 23:00:00,19.5,7.5,30.01,WNW,292,8.0,24.0,59,0.00,,,-99.99,WeatherLink 5.6,2013-01-22 04:00:00,
2013-01-21 23:30:00,18.6,6.3,30.02,WNW,292,9.0,21.0,58,0.00,,,-99.99,WeatherLink 5.6,2013-01-22 04:30:00,